KQ4Q-4 Weather Reports


Display with metric or nautical units.
time (UTC)temp
F
wind
direction
speed
MPH
gust
MPH
rain 1hr
in
rain 24hr
in
rain mn
in
humidity
%
barometer
mb
20260508131606 45 355 1.0 2.0 0.00 0.00 0.00 91 1017.5
20260508131107 44 338 0.0 1.0 0.00 0.00 0.00 98 1017.5
20260508130607 43 162 0.0 2.0 0.00 0.00 0.00 98 1017.6
20260508130110 42 155 0.0 0.0 0.00 0.00 0.00 100 1017.5
20260508125607 41 6 0.0 1.0 0.00 0.00 0.00 100 1017.5
20260508125107 41 5 1.0 2.0 0.00 0.00 0.00 100 1017.5
20260508124607 41 5 1.0 2.0 0.00 0.00 0.00 100 1017.5
20260508124108 40 16 0.0 1.0 0.00 0.00 0.00 100 1017.5
20260508123607 38 1 0.0 0.0 0.00 0.00 0.00 100 1017.5
20260508123108 38 17 1.0 1.0 0.00 0.00 0.00 99 1017.5
20260508122607 37 348 1.0 1.0 0.00 0.00 0.00 99 1017.5
20260508122106 37 349 0.0 1.0 0.00 0.00 0.00 99 1017.5
20260508121606 36 318 0.0 1.0 0.00 0.00 0.00 99 1017.5
20260508121106 35 53 1.0 2.0 0.00 0.00 0.00 99 1017.5
20260508120117 34 10 1.0 1.0 0.00 0.00 0.00 99 1017.4
20260508115607 33 0 0.0 0.0 0.00 0.00 0.00 99 1017.4
20260508115106 33 6 0.0 1.0 0.00 0.00 0.00 99 1017.4
20260508114607 33 327 0.0 0.0 0.00 0.00 0.00 99 1017.4
20260508114106 32 6 0.0 0.0 0.00 0.00 0.00 99 1017.3
20260508113607 32 340 1.0 1.0 0.00 0.00 0.00 99 1017.3
20260508113106 31 42 0.0 0.0 0.00 0.00 0.00 99 1017.3
20260508112606 31 46 0.0 0.0 0.00 0.00 0.00 99 1017.2
20260508112107 31 0 0.0 0.0 0.00 0.00 0.00 99 1017.2
20260508111606 31 0 0.0 0.0 0.00 0.00 0.00 99 1017.1
20260508111108 31 4 0.0 0.0 0.00 0.00 0.00 99 1017.0
20260508110606 31 327 0.0 1.0 0.00 0.00 0.00 99 1017.0
20260508110106 31 54 0.0 0.0 0.00 0.00 0.00 99 1017.0
20260508105606 31 97 0.0 1.0 0.00 0.00 0.00 99 1016.9
20260508105107 31 102 1.0 1.0 0.00 0.00 0.00 99 1016.9
20260508104607 31 119 0.0 1.0 0.00 0.00 0.00 99 1016.9
20260508104107 32 0 0.0 0.0 0.00 0.00 0.00 99 1016.9
20260508103606 32 70 0.0 0.0 0.00 0.00 0.00 99 1016.8
20260508103106 32 89 1.0 1.0 0.00 0.00 0.00 99 1016.8
20260508102607 32 97 1.0 2.0 0.00 0.00 0.00 99 1016.6
20260508102107 31 95 0.0 1.0 0.00 0.00 0.00 99 1016.8
20260508101609 31 120 0.0 0.0 0.00 0.00 0.00 99 1016.6
20260508101106 31 24 0.0 0.0 0.00 0.00 0.00 99 1016.6
20260508100606 31 0 0.0 0.0 0.00 0.00 0.00 99 1016.6
20260508100107 31 328 0.0 0.0 0.00 0.00 0.00 100 1016.5
20260508095606 32 0 0.0 0.0 0.00 0.00 0.00 100 1016.5
20260508095107 32 0 0.0 0.0 0.00 0.00 0.00 100 1016.4
20260508094607 32 224 0.0 0.0 0.00 0.00 0.00 100 1016.4
20260508094106 32 0 0.0 0.0 0.00 0.00 0.00 100 1016.4
20260508093606 32 0 0.0 0.0 0.00 0.00 0.00 99 1016.4
20260508093107 32 0 0.0 0.0 0.00 0.00 0.00 99 1016.3
20260508092606 32 0 0.0 0.0 0.00 0.00 0.00 99 1016.4
20260508092107 32 0 0.0 0.0 0.00 0.00 0.00 100 1016.4
20260508091607 32 0 0.0 0.0 0.00 0.00 0.00 99 1016.3
20260508091107 33 324 0.0 0.0 0.00 0.00 0.00 100 1016.3
20260508090606 33 0 0.0 0.0 0.00 0.00 0.00 100 1016.2
20260508090106 33 5 0.0 1.0 0.00 0.00 0.00 100 1016.2
20260508085606 33 106 0.0 0.0 0.00 0.00 0.00 100 1016.1
20260508085107 33 119 1.0 1.0 0.00 0.00 0.00 100 1016.1
20260508084606 33 0 0.0 0.0 0.00 0.00 0.00 100 1016.2
20260508084106 33 220 0.0 0.0 0.00 0.00 0.00 100 1016.2
20260508083606 33 0 0.0 0.0 0.00 0.00 0.00 100 1016.1
20260508083107 33 0 0.0 0.0 0.00 0.00 0.00 100 1016.1
20260508082607 34 0 0.0 0.0 0.00 0.00 0.00 100 1016.1
20260508082107 34 54 0.0 0.0 0.00 0.00 0.00 100 1016.2
20260508081611 34 0 0.0 0.0 0.00 0.00 0.00 99 1016.1
20260508081106 34 289 0.0 1.0 0.00 0.00 0.00 99 1016.0
20260508080606 34 316 0.0 0.0 0.00 0.00 0.00 99 1016.0
20260508080107 34 17 0.0 0.0 0.00 0.00 0.00 100 1016.0
20260508075606 34 103 0.0 0.0 0.00 0.00 0.00 100 1016.0
20260508075107 35 0 0.0 0.0 0.00 0.00 0.00 100 1016.0
20260508074606 35 0 0.0 0.0 0.00 0.00 0.00 99 1016.0
20260508074106 35 296 0.0 1.0 0.00 0.00 0.00 99 1016.0
20260508073606 35 192 0.0 0.0 0.00 0.00 0.00 100 1016.1
20260508073107 35 172 0.0 1.0 0.00 0.00 0.00 99 1016.0
20260508072607 35 328 0.0 0.0 0.00 0.00 0.00 99 1016.0
20260508072106 35 31 0.0 0.0 0.00 0.00 0.00 99 1016.0
20260508071607 35 306 0.0 1.0 0.00 0.00 0.00 99 1015.9
20260508071106 35 0 0.0 0.0 0.00 0.00 0.00 99 1015.8
20260508070607 35 117 0.0 0.0 0.00 0.00 0.00 100 1015.8
20260508070106 35 128 0.0 1.0 0.00 0.00 0.00 99 1015.7
20260508065607 35 318 0.0 1.0 0.00 0.00 0.00 99 1015.8
20260508065106 35 48 0.0 1.0 0.00 0.00 0.00 99 1015.8
20260508064606 35 0 0.0 0.0 0.00 0.00 0.00 99 1015.9
20260508064106 36 358 0.0 1.0 0.00 0.00 0.00 99 1015.8
20260508063606 36 8 0.0 0.0 0.00 0.00 0.00 99 1015.8
20260508063106 36 320 0.0 0.0 0.00 0.00 0.00 99 1015.8
20260508062606 36 56 0.0 0.0 0.00 0.00 0.00 99 1015.9
20260508062106 36 0 0.0 0.0 0.00 0.00 0.00 99 1015.9
20260508061606 36 334 0.0 0.0 0.00 0.00 0.00 99 1015.9
20260508061107 36 0 0.0 0.0 0.00 0.00 0.00 98 1016.1
20260508060606 37 0 0.0 0.0 0.00 0.00 0.00 98 1016.1
20260508060106 37 0 0.0 0.0 0.00 0.00 0.00 98 1016.1
20260508055606 37 54 0.0 1.0 0.00 0.00 0.00 98 1016.1
20260508055106 37 277 0.0 0.0 0.00 0.00 0.00 98 1016.2
20260508054606 37 54 0.0 0.0 0.00 0.00 0.00 98 1016.2
20260508054107 37 65 0.0 1.0 0.00 0.00 0.00 99 1016.3
20260508053606 37 289 0.0 0.0 0.00 0.00 0.00 98 1016.2
20260508053106 37 65 0.0 1.0 0.00 0.00 0.00 98 1016.2
20260508052606 37 0 0.0 0.0 0.00 0.00 0.00 98 1016.1
20260508052106 38 43 0.0 1.0 0.00 0.00 0.00 98 1016.0
20260508051606 38 0 0.0 0.0 0.00 0.00 0.00 98 1016.0
20260508051108 38 275 0.0 0.0 0.00 0.00 0.00 98 1015.9
20260508050606 38 336 0.0 0.0 0.00 0.00 0.00 98 1015.9
20260508050106 39 62 0.0 1.0 0.00 0.00 0.00 98 1015.8
20260508045607 39 214 0.0 0.0 0.00 0.00 0.00 98 1015.7
20260508045106 39 75 0.0 1.0 0.00 0.00 0.00 98 1015.6
20260508044607 39 98 2.0 2.0 0.00 0.00 0.00 98 1015.6
20260508044106 40 152 1.0 2.0 0.00 0.00 0.00 97 1015.5
20260508043606 40 110 1.0 2.0 0.00 0.00 0.00 98 1015.4
20260508043106 40 82 1.0 1.0 0.00 0.00 0.00 98 1015.4
20260508042606 40 102 1.0 2.0 0.00 0.00 0.00 98 1015.2
20260508042107 40 115 0.0 1.0 0.00 0.00 0.00 97 1015.4
20260508041606 40 40 0.0 0.0 0.00 0.00 0.00 97 1015.4
20260508041106 40 63 0.0 0.0 0.00 0.00 0.00 97 1015.5
20260508040607 40 21 0.0 0.0 0.00 0.00 0.00 97 1015.5
20260508040106 40 348 0.0 1.0 0.00 0.00 0.00 97 1015.5
20260508035606 40 25 0.0 0.0 0.00 0.00 0.03 97 1015.4
20260508034621 41 0 0.0 0.0 0.00 0.00 0.03 96 1015.4
20260508034107 41 194 0.0 1.0 0.00 0.00 0.03 96 1015.2
20260508033606 41 358 0.0 1.0 0.00 0.00 0.03 96 1015.2
20260508033110 42 246 0.0 0.0 0.00 0.00 0.03 96 1015.2
20260508032607 42 95 0.0 1.0 0.00 0.00 0.03 96 1015.2
20260508032107 42 56 0.0 1.0 0.00 0.00 0.03 96 1015.2
20260508031608 42 50 1.0 2.0 0.00 0.00 0.03 96 1015.1
20260508031107 42 103 2.0 2.0 0.00 0.00 0.03 96 1015.1
20260508030606 42 96 1.0 2.0 0.00 0.00 0.03 95 1015.1
20260508030106 42 93 0.0 1.0 0.00 0.00 0.03 95 1015.1
20260508025606 42 49 0.0 0.0 0.00 0.00 0.03 95 1015.1
20260508025107 43 0 0.0 0.0 0.00 0.00 0.03 94 1015.0
20260508024606 43 104 0.0 0.0 0.00 0.00 0.03 94 1014.9
20260508024107 43 55 0.0 1.0 0.00 0.00 0.03 94 1014.8
20260508023607 43 51 0.0 1.0 0.00 0.00 0.03 94 1014.8
20260508023106 43 254 0.0 1.0 0.00 0.00 0.03 94 1014.7
20260508022607 44 136 0.0 0.0 0.00 0.00 0.03 93 1014.7
20260508022106 44 0 0.0 0.0 0.00 0.00 0.03 93 1014.7
20260508021606 44 66 0.0 1.0 0.00 0.00 0.03 92 1014.6
20260508021107 44 49 0.0 0.0 0.00 0.00 0.03 92 1014.5
20260508020607 45 67 0.0 1.0 0.00 0.00 0.03 91 1014.5
20260508020107 45 90 0.0 1.0 0.00 0.00 0.03 91 1014.4
20260508015607 45 108 0.0 0.0 0.00 0.00 0.03 91 1014.4
20260508015106 45 149 0.0 0.0 0.00 0.00 0.03 90 1014.3
20260508014607 46 0 0.0 0.0 0.00 0.00 0.03 90 1014.3
20260508014106 46 96 0.0 1.0 0.00 0.00 0.03 89 1014.2
20260508013606 47 36 0.0 1.0 0.00 0.00 0.03 88 1014.1
20260508013106 47 0 0.0 0.0 0.00 0.00 0.03 87 1014.0
20260508012606 47 29 0.0 0.0 0.00 0.00 0.03 85 1014.0
20260508012108 48 279 1.0 1.0 0.00 0.00 0.03 84 1013.9
20260508011606 48 270 1.0 2.0 0.00 0.00 0.03 84 1013.9
20260508011106 48 270 0.0 1.0 0.00 0.00 0.03 83 1013.7
20260508010609 48 298 1.0 2.0 0.00 0.00 0.03 84 1013.7
20260508010106 48 301 1.0 2.0 0.00 0.00 0.03 84 1013.7
20260508005606 48 278 1.0 2.0 0.00 0.00 0.03 83 1013.6
20260508005107 49 284 1.0 2.0 0.00 0.00 0.03 83 1013.6
20260508004607 49 295 1.0 2.0 0.00 0.00 0.03 82 1013.5
20260508004108 49 295 2.0 2.0 0.00 0.00 0.03 80 1013.5
20260508003608 50 331 1.0 1.0 0.00 0.00 0.03 80 1013.4
20260508003106 50 288 1.0 1.0 0.00 0.00 0.03 78 1013.4
20260508002607 51 352 0.0 1.0 0.00 0.00 0.03 78 1013.4
20260508002106 51 319 1.0 1.0 0.00 0.00 0.03 78 1013.4
20260508001607 52 331 1.0 2.0 0.00 0.00 0.03 77 1013.4
20260508001106 53 322 1.0 2.0 0.00 0.00 0.03 73 1013.4
20260508000606 53 322 1.0 2.0 0.00 0.00 0.03 72 1013.4
20260508000107 53 287 2.0 3.0 0.00 0.00 0.03 70 1013.3
20260507235606 53 314 3.0 3.0 0.00 0.00 0.03 70 1013.3
20260507235107 53 284 2.0 2.0 0.00 0.00 0.03 69 1013.3
20260507234606 53 327 1.0 2.0 0.00 0.00 0.03 70 1013.4
20260507234107 54 270 2.0 3.0 0.00 0.00 0.03 68 1013.3
20260507233607 54 263 2.0 5.0 0.00 0.00 0.03 68 1013.3
20260507233107 54 304 2.0 3.0 0.00 0.00 0.03 67 1013.2
20260507232611 55 270 1.0 2.0 0.00 0.00 0.03 66 1013.2
20260507232107 55 307 5.0 8.0 0.00 0.00 0.03 64 1013.1
20260507231606 55 289 4.0 6.0 0.00 0.00 0.03 64 1013.1
20260507231107 55 301 4.0 6.0 0.00 0.00 0.03 65 1013.2
20260507230607 55 318 2.0 4.0 0.00 0.00 0.03 65 1013.1
20260507230106 55 278 3.0 6.0 0.00 0.00 0.03 65 1013.0
20260507225606 54 283 2.0 4.0 0.00 0.00 0.03 65 1013.0
20260507225106 54 279 2.0 6.0 0.00 0.00 0.03 65 1013.0
20260507224607 54 310 6.0 8.0 0.00 0.00 0.03 65 1013.0
20260507224106 54 318 5.0 6.0 0.00 0.00 0.03 66 1013.0
20260507223606 55 295 3.0 5.0 0.00 0.00 0.03 66 1013.0
20260507223107 55 244 2.0 3.0 0.00 0.00 0.03 67 1012.9
20260507222454 55 305 3.0 6.0 0.00 0.00 0.03 66 1012.8
20260507221606 54 311 1.0 3.0 0.00 0.00 0.03 69 1012.8
20260507221108 54 50 2.0 3.0 0.00 0.00 0.03 69 1012.8
20260507220607 54 314 5.0 8.0 0.00 0.00 0.03 69 1012.8
20260507220106 54 316 3.0 5.0 0.00 0.00 0.03 68 1012.7
20260507215607 54 340 2.0 4.0 0.00 0.00 0.03 69 1012.7
20260507215106 53 1 2.0 4.0 0.00 0.00 0.03 69 1012.7
20260507214606 53 315 4.0 6.0 0.00 0.00 0.03 69 1012.6
20260507214110 53 286 3.0 4.0 0.00 0.00 0.03 69 1012.7
20260507213606 53 271 4.0 6.0 0.00 0.00 0.03 69 1012.6
20260507213106 53 290 6.0 7.0 0.00 0.00 0.03 68 1012.6
20260507212607 53 271 6.0 8.0 0.00 0.00 0.03 68 1012.6
20260507212106 53 270 4.0 6.0 0.00 0.00 0.03 69 1012.6
20260507211607 54 272 4.0 6.0 0.00 0.00 0.03 69 1012.6
20260507211106 54 239 3.0 5.0 0.00 0.00 0.03 69 1012.6
20260507210606 54 247 4.0 7.0 0.00 0.00 0.03 70 1012.3
20260507210107 53 277 5.0 7.0 0.00 0.00 0.03 68 1012.2
20260507205606 53 348 3.0 5.0 0.00 0.00 0.03 69 1012.3
20260507205107 53 324 4.0 8.0 0.00 0.00 0.03 71 1012.3
20260507204606 53 351 4.0 5.0 0.00 0.00 0.03 71 1012.3
20260507204106 53 326 4.0 9.0 0.00 0.00 0.03 71 1012.3
20260507203607 53 266 4.0 6.0 0.00 0.00 0.03 71 1012.2
20260507203106 52 239 4.0 5.0 0.00 0.00 0.03 72 1012.3
20260507202607 52 279 2.0 3.0 0.00 0.00 0.03 74 1012.5
20260507202106 52 286 4.0 5.0 0.00 0.00 0.03 74 1012.6
20260507201607 52 298 2.0 3.0 0.00 0.00 0.03 74 1012.7
20260507201106 52 347 3.0 4.0 0.00 0.00 0.03 73 1012.7
20260507200606 52 329 4.0 6.0 0.00 0.00 0.03 74 1012.8
20260507200109 52 276 6.0 8.0 0.00 0.00 0.03 74 1012.8
20260507195606 52 295 3.0 4.0 0.00 0.00 0.03 73 1012.8
20260507195106 52 314 5.0 10.0 0.00 0.00 0.03 73 1012.7
20260507194607 52 296 4.0 5.0 0.00 0.00 0.03 74 1012.6
20260507194107 52 282 5.0 7.0 0.00 0.00 0.03 75 1012.6
20260507193607 52 307 4.0 7.0 0.00 0.00 0.03 75 1012.5
20260507193107 52 288 3.0 4.0 0.00 0.00 0.03 75 1012.6
20260507192608 52 294 3.0 4.0 0.00 0.00 0.03 75 1012.7
20260507192106 52 308 4.0 7.0 0.00 0.00 0.03 75 1012.8
20260507191607 51 293 4.0 5.0 0.00 0.00 0.03 76 1012.9
20260507191107 51 263 4.0 4.0 0.00 0.00 0.03 77 1012.9
20260507190606 51 279 3.0 4.0 0.00 0.00 0.03 76 1013.0
20260507190106 51 280 4.0 6.0 0.00 0.00 0.03 77 1013.1
20260507185607 51 272 2.0 4.0 0.00 0.00 0.03 78 1013.1
20260507185106 51 289 3.0 6.0 0.00 0.00 0.03 78 1013.3
20260507184607 51 311 4.0 7.0 0.00 0.00 0.03 77 1013.3
20260507184106 51 306 2.0 4.0 0.00 0.00 0.03 78 1013.3
20260507183606 51 300 3.0 4.0 0.00 0.00 0.03 77 1013.3
20260507183107 51 325 5.0 7.0 0.00 0.00 0.03 78 1013.3
20260507182607 51 275 5.0 8.0 0.00 0.00 0.03 77 1013.1
20260507182107 51 304 5.0 6.0 0.00 0.00 0.03 78 1013.1
20260507181606 51 302 3.0 4.0 0.00 0.00 0.03 78 1013.0
20260507181107 51 309 3.0 4.0 0.00 0.00 0.03 79 1013.2
20260507180137 51 292 4.0 6.0 0.00 0.00 0.03 77 1013.2
20260507175607 51 319 4.0 7.0 0.00 0.00 0.03 77 1013.2
20260507175106 51 273 4.0 6.0 0.00 0.00 0.03 76 1013.2
20260507174606 51 279 4.0 6.0 0.00 0.00 0.03 77 1013.3
20260507174107 51 291 3.0 4.0 0.00 0.00 0.03 75 1013.1
20260507173607 51 301 4.0 5.0 0.00 0.00 0.03 78 1013.2
20260507173107 51 303 4.0 5.0 0.00 0.00 0.03 80 1013.2
20260507172607 51 297 2.0 3.0 0.00 0.00 0.03 79 1013.2
20260507172107 51 334 3.0 4.0 0.00 0.00 0.03 80 1013.2
20260507171606 51 336 4.0 4.0 0.00 0.00 0.03 80 1013.2
20260507171112 51 306 2.0 2.0 0.00 0.00 0.03 80 1013.2
20260507170607 50 341 2.0 2.0 0.00 0.00 0.03 81 1013.2
20260507170107 50 338 1.0 2.0 0.00 0.00 0.03 81 1013.2
20260507165607 50 278 4.0 6.0 0.00 0.00 0.03 82 1013.1
20260507165106 50 324 3.0 4.0 0.00 0.00 0.03 83 1013.1
20260507164607 50 234 2.0 3.0 0.00 0.00 0.03 84 1013.3
20260507164106 49 279 1.0 2.0 0.00 0.00 0.03 85 1013.2
20260507163609 49 258 1.0 2.0 0.00 0.00 0.03 85 1013.3
20260507163106 49 276 2.0 3.0 0.00 0.00 0.03 85 1013.3
20260507162607 49 230 2.0 2.0 0.00 0.00 0.03 86 1013.3
20260507162107 49 269 3.0 4.0 0.00 0.00 0.03 85 1013.4
20260507161606 48 296 2.0 3.0 0.00 0.00 0.03 84 1013.3
20260507161107 48 284 2.0 2.0 0.00 0.00 0.03 86 1013.3
20260507160607 48 303 2.0 3.0 0.00 0.00 0.03 86 1013.3
20260507160107 49 294 4.0 4.0 0.00 0.00 0.03 86 1013.4
20260507155606 49 238 1.0 2.0 0.00 0.00 0.03 86 1013.3
20260507155108 48 295 1.0 1.0 0.00 0.00 0.03 86 1013.3
20260507154607 48 28 1.0 2.0 0.00 0.00 0.03 86 1013.3
20260507154107 48 302 2.0 2.0 0.00 0.00 0.03 86 1013.3
20260507153606 48 264 2.0 3.0 0.00 0.00 0.03 87 1013.3
20260507153106 48 306 1.0 3.0 0.00 0.00 0.03 88 1013.3
20260507152606 47 270 1.0 2.0 0.00 0.00 0.03 89 1013.3
20260507152107 47 296 0.0 1.0 0.00 0.00 0.03 89 1013.3
20260507151607 47 322 2.0 3.0 0.00 0.00 0.03 89 1013.3
20260507151107 47 240 3.0 3.0 0.00 0.00 0.03 89 1013.5
20260507150607 47 270 2.0 2.0 0.00 0.00 0.03 89 1013.5
20260507150108 46 202 0.0 0.0 0.00 0.00 0.03 90 1013.4
20260507145606 46 273 3.0 3.0 0.00 0.00 0.03 92 1013.6
20260507145108 46 265 2.0 2.0 0.00 0.00 0.03 92 1013.5
20260507144607 46 263 2.0 2.0 0.00 0.00 0.03 93 1013.4
20260507144107 46 284 0.0 0.0 0.00 0.00 0.03 93 1013.4
20260507143606 46 241 2.0 2.0 0.00 0.00 0.03 93 1013.6
20260507143109 46 216 2.0 2.0 0.00 0.00 0.03 94 1013.4
20260507142607 46 175 2.0 2.0 0.00 0.00 0.03 95 1013.5
20260507142107 46 197 1.0 2.0 0.00 0.00 0.03 95 1013.5
20260507141606 46 233 2.0 2.0 0.00 0.00 0.03 95 1013.6
20260507141107 46 295 1.0 2.0 0.00 0.00 0.03 95 1013.6
20260507140608 46 173 1.0 1.0 0.00 0.00 0.03 95 1013.4
20260507140107 46 288 1.0 1.0 0.00 0.00 0.03 95 1013.5
20260507135609 46 140 1.0 2.0 0.00 0.00 0.03 95 1013.5
20260507135106 46 129 1.0 1.0 0.00 0.00 0.03 95 1013.5
20260507134607 46 243 0.0 0.0 0.00 0.00 0.03 95 1013.5
20260507134106 46 174 1.0 1.0 0.00 0.00 0.03 95 1013.5
20260507133607 46 250 1.0 1.0 0.00 0.00 0.03 94 1013.6
20260507133107 46 311 2.0 3.0 0.00 0.00 0.03 95 1013.5
20260507132607 46 310 0.0 0.0 0.00 0.00 0.03 95 1013.6
20260507132106 46 227 1.0 1.0 0.00 0.00 0.03 95 1013.7